Regional Weather Roundup
Issued by NWS

Home | Current Version | Previous Version | Text Only | Print | Product List | Glossary Off
Versions: 1 2 3 4 5 6 7 8 9 10 11 12 13 14 15 16 17 18 19 20 21 22 23 24 25 26 27 28 29 30 31 32 33 34 35 36 37 38 39 40 41 42 43 44 45 46 47 48 49 50

611
ASUS43 KDTX 202010
RWRMI
MICHIGAN HOURLY REGIONAL WEATHER ROUNDUP
NATIONAL WEATHER SERVICE DETROIT/PONTIAC MI
300 PM EST MON NOV 20 2017

NOTE: "FAIR" INDICATES FEW OR NO CLOUDS BELOW 12,000 FEET WITH NO
SIGNIFICANT WEATHER AND/OR OBSTRUCTION TO VISIBILITY.

MIZ047>049-052>055-059>063-066>070-074>076-081>083-202100-
SOUTHEAST LOWER MICHIGAN

CITY           SKY/WX    TMP DP  RH WIND       PRES   REMARKS
ADRIAN         SUNNY     46  29  51 SW25G31   29.91F
ALMA           SUNNY     46  30  55 SW12G20   29.80F
ANN ARBOR      SUNNY     47  29  49 S15G24    29.88F
BAD AXE        SUNNY     45  29  53 SW14      29.79F
CARO           SUNNY     47  30  51 S16G23    29.79F
DETROIT CITY   SUNNY    N/A N/A N/A SW20G28   29.89F
DETROIT        PTSUNNY   48  28  46 SW20      29.91F
FLINT          SUNNY     49  28  44 SW15G22   29.83F
GROSSE ILE     SUNNY     46  30  54 SW20G25   29.91F
HILLSDALE      SUNNY     46  28  49 SW12G23   29.87F
HOWELL         SUNNY     49  28  44 SW12G20   29.83F

CITY           SKY/WX    TMP DP  RH WIND       PRES   REMARKS
JACKSON        SUNNY     50  27  40 S16G30    29.85F
LAMBERTVILLE   SUNNY     49  27  43 SW15G26   29.92F
LANSING        SUNNY     49  30  48 SW14G26   29.83F
LAPEER         FAIR      48  28  45 SW13G18   29.83F
MASON          SUNNY     50  30  45 SW7       29.83F
MONROE         SUNNY     49  27  42 SW15G26   29.91F
MT. CLEMENS    MOSUNNY   48  29  48 S18G26    29.86F
PONTIAC        PTSUNNY   46  27  47 SW17G24   29.85F
PORT HOPE        N/A     44  30  57 SW9G16    29.78F
PORT HURON     SUNNY     46  28  49 S17G24    29.86F
TRI CITIES     SUNNY     46  31  55 SW14      29.80F
MIDLAND        FAIR      46  31  56 S13G21    29.78F
TROY           SUNNY     49  27  42 SW16G25   29.89F
SAGINAW HB     SUNNY     45  32  61 SW15      29.79F
$$
MIZ043>046-050>051-056>058-064>065-071>073-077>080-202100-
SOUTHWEST LOWER MICHIGAN

CITY           SKY/WX    TMP DP  RH WIND       PRES   REMARKS
BATTLE CREEK   SUNNY     49  30  48 SW18G24   29.84F
BENTON HARBOR  SUNNY     52  28  39 SW12G24   29.82F
BIG RAPIDS     SUNNY     46  33  62 SW8G16    29.74F
COLDWATER      SUNNY     50  27  40 SW14G25   29.86F
FREMONT        FAIR      46  35  66 SW15G22   29.75F
HOLLAND        CLOUDY    48  32  53 SW18G28   29.80F
GRAND RAPIDS   PTSUNNY   48  31  51 SW17G23   29.80F
IONIA          FAIR      49  29  46 S14       29.80F
KALAMAZOO      SUNNY     49  27  42 S15G26    29.84F
LUDINGTON      SUNNY     46  34  64 S14G24    29.71F
MARSHALL       SUNNY     49  28  43 SW16G23   29.84F
MOUNT PLEASANT CLOUDY    46  30  54 SW9G17    29.77F
MUSKEGON       CLOUDY    48  34  58 S21G28    29.78F
SOUTH HAVEN    SUNNY     52  27  38 SW14G21   29.81F
$$
MIZ016>042-202100-
NORTHERN LOWER MICHIGAN

CITY           SKY/WX    TMP DP  RH WIND       PRES   REMARKS
ALPENA         MOSUNNY   45  34  65 S7        29.73F
BEAVER ISLAND  CLOUDY    43  35  73 S10G16    29.66F
BELLAIRE       SUNNY     44  36  72 S13       29.69F
CADILLAC       CLOUDY    43  35  73 S13G22    29.69F
CHARLEVOIX     CLOUDY    43  33  67 S9G16     29.69F
FRANKFORT      CLOUDY    47  37  67 SW10      29.67F
GAYLORD        SUNNY     39  31  72 S13       29.68F WCI  31
GRAYLING       SUNNY     41  32  68 S8        29.71F
HARBOR SPRINGS MOSUNNY   45  32  62 S6        29.68F
MANISTEE       SUNNY     47  35  63 S10G22    29.68F
OSCODA         SUNNY     42  30  63 S12       29.75F
PELLSTON       CLOUDY    42  32  67 S7        29.68F
ROGERS CITY    PTSUNNY   40  31  70 SE5       29.72F
TRAVERSE CITY  CLOUDY    45  33  63 S8        29.67F
$$
MIZ007>008-015-202100-
EASTERN UPPER MICHIGAN

CITY           SKY/WX    TMP DP  RH WIND       PRES   REMARKS
KINROSS        CLOUDY    36  29  75 SE13      29.68F WCI  27
MACKINAC ISLAN MOSUNNY   39  29  69 E6        29.68F WCI  34
NEWBERRY       CLOUDY    37  35  90 S10G16    29.62F WCI  30
S. S. MARIE    CLOUDY    36  28  73 SE8       29.68F WCI  30
MUNISING         N/A     37  31  78 S15G22    29.58F WCI  28
$$
MIZ004>006-011>014-085-202100-
CENTRAL UPPER MICHIGAN

CITY           SKY/WX    TMP DP  RH WIND       PRES   REMARKS
MANISTIQUE     CLOUDY    40  35  80 S9        29.62F WCI  34
ESCANABA       PTSUNNY   41  32  70 S9        29.61F
MENOMINEE      CLOUDY    42  30  62 S8        29.61F
SAWYER-GWINN   PTSUNNY   32  27  80 S12       29.55F WCI  23
$$
MIZ001>003-009>011-084-202100-
WESTERN UPPER MICHIGAN

CITY           SKY/WX    TMP DP  RH WIND       PRES   REMARKS
IRON MOUNTAIN  MOSUNNY   39  25  57 S8        29.54F WCI  33
HOUGHTON       CLOUDY    32  25  75 SE7       29.47F WCI  26
COPPER HARBOR    N/A     37  29  72 SW8G24    29.48F WCI  31
IRONWOOD       CLOUDY    40  29  64 VRB7G17   29.41F
$$

ABBREVIATIONS USED IN REMARKS
   TC - TEMPERATURE IN CELSIUS
  WCI - WIND CHILL INDEX
   HX - HEAT INDEX
  VSB - VISIBILITY





USA.gov is the U.S. government's official web portal to all federal, state and local government web resources and services.